ATLAS 5 CENTAUR DEB, 49353

Orbit data source: Space-Track

ATLAS 5 CENTAUR DEB, 49353 is space debris in HEO originally from a launch on Wed, 17 Oct 2018 UTC launched from the Air Force Eastern Test Range (AFETR). Debris objects in space refer to the collection of defunct objects orbiting the Earth. Examples of debris include non-operational satellites, rocket bodies, and fragments generated from explosions, collisions, or faulty payload assembly.

Loading next visibility...
Identifier
49353, 2018-079FE
Orbit
HEO
Country
Flag of USUS
Related business
Flag of USUnited Launch Alliance/Lockheed Martin (US)
Manufacturer
ULA Decatur
Mission
Spacecraft
Bus & Motor
Unknown
Mass
Unknown
Launch date (UTC)
2018-10-17 (8 years ago)
Launch vehicle
Unknown
Launch site
Air Force Eastern Test Range (AFETR)
Object type
Payload
Rocket body
Debris
Shape & HBR
Unknown shape, 1.1 m
Radar Cross Section
Medium (>0.1 m² and <1 m²)

Expand to show TLE details & history
Last TLE update: 1 year ago

TLE from 1 year ago
0 ATLAS 5 CENTAUR DEB
1 49353U 18079FE  25112.10117000 -.00000126  00000-0  00000-0 0  9990
2 49353  12.3587  49.7390 5247365 293.9389  20.7244  1.94958974  9957
Epoch: 2025-04-22T02:25Z
TLE epoch observation values (Epoch: 2025-04-22T02:25:41.088Z)
Latitude
0.00001°
Longitude
162.87957°
Altitude
9,779.002 km
Speed
5.883 km/s
True Right ascension
03h 18m 49s
True Declination
0° 00' 00"
Sunlit
Object was in daylight at epoch
Visualization orbit readout
Latitude
Unknown
Longitude
Unknown
Altitude
Unknown
Speed
Unknown
Apparent Right ascension
Unknown
Apparent Declination
Unknown
Sunlit
N/A
Visualization observer readout
Local Sidereal Time
21:38:37
Azimuth
Unknown
Elevation
Unknown
Doppler factor
Unknown
Orbital elements
Apogee altitude
34,895.635 km
Perigee altitude
6,486.983 km
Semi-major axis
27,069.446 km
Eccentricity
0.52474
Inclination
12.3587°
RAAN
49.739°
Arg. of periapsis
293.9389°
True anomaly
66.32122°
Mean anomaly
20.7244°
Eccentric anomaly
40.08346°
Mean motion
0.48733 °/min
Orbital period
738.72 mins
BSTAR
0
Loading maneuver chart data...
Computing Atmospheric mass density...

Documentation

Showing up to 5 results
|